Regional Weather Roundup
Issued by NWS

Home | Current Version | Previous Version | Text Only | Print | Product List | Glossary Off
Versions: 1 2 3 4 5 6 7 8 9 10 11 12 13 14 15 16 17 18 19 20 21 22 23 24 25 26 27 28 29 30 31 32 33 34 35 36 37 38 39 40 41 42 43 44 45 46 47 48 49 50

000
ASUS43 KLSX 281107
RWRMO

WEATHER SUMMARY FOR MISSOURI
NATIONAL WEATHER SERVICE SPRINGFIELD MO
600 AM CDT TUE JUL 28 2015

NOTE: "FAIR" INDICATES FEW OR NO CLOUDS BELOW 12,000 FEET WITH NO
       SIGNIFICANT WEATHER AND/OR OBSTRUCTIONS TO VISIBILITY.
       CURRENT SKY AND/OR WEATHER CONDITIONS ARE NOT AVAILABLE FOR
       CHILLICOTHE AND FARMINGTON.

MOZ001>031-035>038-043-044-053-054-281200-
...NORTHERN AND WESTERN MISSOURI...

CITY           SKY/WX    TMP DP  RH WIND       PRES   REMARKS
KANSAS CTY INT PTCLDY    76  73  91 S8        29.88S
KANSAS C DTWN  CLEAR     80  74  81 S6        29.87S
LEE`S SUMMIT   CLEAR     79  74  84 S7        29.90R
ST JOSEPH      CLEAR     76  73  91 S9        29.85F
CHILLICOTHE      N/A     75  72  90 S3        29.91S
KIRKSVILLE     CLEAR     72  69  90 SE6       29.93S

$$
MOZ066>068-077>081-088>096-101>105-281200-
...SOUTHWEST MISSOURI...

CITY           SKY/WX    TMP DP  RH WIND       PRES   REMARKS
SPRINGFIELD    CLEAR     77  73  87 S7        29.96R
JOPLIN         CLEAR     78  71  79 S10       29.93R

$$
MOZ032>034-039>042-045>050-055>058-069>072-281200-
...CENTRAL MISSOURI...

CITY           SKY/WX    TMP DP  RH WIND       PRES   REMARKS
COLUMBIA       CLEAR     73  72  96 SE6       29.93S
JEFFERSON CITY CLEAR     74  72  93 SE3       29.92S
ROLLA          CLEAR     75  73  93 S8        29.95R
SEDALIA        CLEAR     76  73  91 S6        29.93R
WHITEMAN AFB   CLEAR     77  77 100 S6        29.90R
WARRENSBURG    CLEAR     75  73  94 S5        29.90R
OSAGE BEACH    CLEAR     75  72  88 CALM      29.94S

$$
MOZ051-052-059>065-281200-
...EAST CENTRAL MISSOURI...

CITY           SKY/WX    TMP DP  RH WIND       PRES   REMARKS
ST LOUIS INTL  MOCLDY    76  71  85 E5        29.95R
SPIRIT OF STL  CLEAR     73  73 100 CALM      29.93R FOG
ST CHARLES     CLEAR     73  72  96 CALM      29.93S

$$
MOZ072>076-082>087-097>100-106>115-281200-
...SOUTH CENTRAL AND SOUTHEAST MISSOURI...

CITY           SKY/WX    TMP DP  RH WIND       PRES   REMARKS
CAPE GIRARDEAU CLEAR     74  74 100 CALM      29.95R
FARMINGTON     PTCLDY    73  72  94 CALM      30.01R
POPLAR BLUFF   CLEAR     76  74  93 CALM      29.95R
WEST PLAINS    CLEAR     75  71  87 CALM      29.99R

$$



USA.gov is the U.S. government's official web portal to all federal, state and local government web resources and services.